Starlink 31592

operational
NORAD ID: 59467 Int'l Des: 2024-068 Owner: SPXS Country: US Constellation: starlink
LEOCIRCULAR

Starlink 31592について

説明を読み込み中...

リアルタイム位置

3D地球を読み込み中...

次回通過

高度履歴

Altitude vs Time

uPlot chart will show altitude changes over time

軌道要素

1 59467U 24068N 25308.89292968 -.00002710 00000-0 -89048-4 0 9997
2 59467 42.9961 19.5697 0000496 295.4417 64.6383 15.27569871 89437
Epoch: Nov 4, 2025 • Age: 18 hours

現在のステータス

高度 485.9 km
速度 7.63 km/s
衛星直下点 40.66°N, 171.59°E
打ち上げ日 Apr 10, 2024
運用期間 1.5 years
タイプ internet

技術仕様

分類 Payload
質量 730.00 kg
乾燥質量 700.00 kg
総質量 730.00 kg
長さ 0.30 m
直径 4.10 m
スパン 29.00 m
形状 Box + pan
製造者 SPXS
バスタイプ Starlink V2M
フェーズステータス In Orbit
所有者/国 SPXS/US

大規模コンステレーション

Loading constellations...